Wetbulb
77.05 76.41 74.47 71.02 59.06 56.65 54.24 55.06 58.71 57.44 60.19 64.57 62.34 62.24 61.35 63.01 59.13 51.57 66.83 69.81 72.12 72.62 73.21 74.29 76.63 75.93 76.13 75.93 76.12 75.93 75.76 76.01 76.09 75.95 75.98 75.68 75.98 75.68 76.55 76.60 76.76 76.51 77.18 76.91 76.91 76.96 76.44 76.47 76.94
76.19 73.66 71.38 66.33 55.08 50.59 53.19 58.63 56.93 60.28 63.83 65.29 65.28 64.21 63.00 60.64 66.17 66.25 66.72 70.38 72.61 72.88 72.60 73.51 76.66 76.54 76.37 76.50 76.17 75.96 75.77 75.77 75.95 76.03 75.93 75.71 75.93 75.88 76.29 76.72 76.72 76.57 76.32 76.75 76.98 76.69 76.63 76.41 76.74
74.71 73.84 65.94 60.79 53.72 51.84 51.69 56.68 59.97 62.91 65.26 64.64 63.14 65.19 63.38 60.03 66.60 66.64 69.70 71.77 72.57 72.54 72.14 73.52 76.03 76.74 76.53 76.14 76.25 75.93 75.93 75.63 75.54 75.71 75.84 75.40 75.85 76.10 76.52 76.84 76.59 76.65 76.35 75.80 76.24 76.44 76.47 76.16 76.16
70.97 69.15 66.48 55.34 53.32 55.81 56.38 57.94 62.52 62.44 64.50 65.58 64.37 60.79 65.09 67.98 67.09 69.33 71.23 72.37 72.17 72.26 72.32 75.26 76.04 76.49 76.74 75.58 75.74 76.39 75.71 75.93 75.79 75.77 75.59 75.19 75.27 75.95 75.93 76.74 76.61 76.70 76.00 75.44 75.55 76.27 76.10 75.88 75.80
71.67 67.53 57.07 53.93 54.54 56.84 58.80 61.11 63.94 61.40 62.51 63.29 64.17 61.07 62.36 67.91 69.81 70.89 70.40 72.34 72.04 72.02 72.97 74.51 76.76 76.72 76.96 75.41 75.80 75.44 75.77 74.94 75.08 75.84 75.66 75.27 75.16 76.03 76.19 75.93 76.60 76.68 76.33 75.77 75.99 76.30 76.27 75.88 75.25
65.45 64.74 52.89 50.86 54.38 58.03 59.74 62.76 62.29 62.88 64.05 64.09 62.72 62.56 62.67 69.25 69.44 70.07 70.64 71.85 72.49 72.51 73.68 74.59 76.08 77.12 76.58 75.36 75.74 76.24 75.47 75.14 74.66 75.52 75.77 75.44 75.22 75.39 76.23 75.98 76.23 76.55 76.85 75.44 75.94 76.18 75.74 75.60 75.24
64.15 59.31 54.46 53.68 55.04 56.79 59.20 62.17 62.18 62.29 63.29 62.75 65.36 61.55 62.75 67.36 70.11 70.17 70.04 70.46 71.66 72.67 73.37 74.05 73.56 75.36 76.51 75.14 76.20 75.49 74.69 75.16 75.44 74.91 75.93 75.79 75.41 75.44 75.88 76.20 76.33 76.43 76.19 75.13 75.77 75.89 75.70 75.48 75.62
65.91 61.61 55.91 55.37 54.75 55.87 60.83 61.87 64.99 63.42 62.59 66.82 66.82 60.03 60.01 66.52 69.33 69.52 70.57 70.54 70.69 72.27 73.00 73.19 72.96 73.24 73.04 72.65 76.34 74.52 74.44 74.69 75.49 75.41 75.25 76.04 75.88 75.69 75.74 75.94 76.45 75.74 75.26 75.02 75.61 75.82 75.37 75.29 75.60
68.83 58.02 54.17 55.50 56.05 58.03 61.55 61.37 65.34 67.10 64.11 65.68 65.95 64.81 65.72 68.65 69.99 69.34 69.31 69.95 71.25 72.03 72.18 71.97 72.24 71.39 72.56 72.87 73.90 74.85 74.36 74.61 75.05 75.09 74.91 74.16 72.18 73.51 74.60 75.44 76.22 75.63 75.55 75.16 75.19 75.05 74.47 75.15 75.08
62.18 56.56 57.76 60.88 60.39 58.87 60.67 62.55 63.38 63.26 63.17 62.69 63.83 66.10 67.66 68.90 68.55 67.86 67.76 68.19 69.61 70.11 71.21 71.51 71.46 71.04 71.60 73.63 72.24 71.77 71.71 71.71 72.03 72.76 72.62 70.32 71.53 72.60 74.10 75.07 75.80 75.94 75.61 75.10 74.47 74.50 74.22 73.89 71.89
64.00 58.39 60.17 61.55 62.86 62.32 60.93 62.05 64.32 62.01 59.82 61.76 61.92 64.22 66.66 67.06 67.60 67.48 68.03 68.54 69.05 70.06 70.99 71.39 70.91 70.88 71.26 71.71 71.11 70.80 70.81 71.32 71.47 72.40 71.52 70.67 71.09 72.72 73.83 73.22 73.69 73.53 74.99 73.34 73.79 73.44 73.54 72.97 72.32
61.00 64.02 63.47 62.85 64.47 61.83 60.57 63.16 61.46 62.73 62.36 64.82 65.36 66.08 66.54 66.09 66.63 67.07 67.87 68.07 68.68 68.88 70.39 70.72 70.83 70.82 71.09 71.00 70.04 70.51 70.33 70.84 71.05 71.96 72.51 72.12 71.24 71.64 72.75 72.29 73.13 73.33 73.20 72.72 72.78 72.48 72.90 72.58 72.45
62.22 60.09 62.90 64.36 63.26 62.40 63.45 61.02 61.17 62.67 64.32 66.27 66.35 66.22 65.97 66.25 66.52 67.67 68.49 68.85 68.52 67.91 68.98 68.95 70.08 70.07 70.36 69.77 69.13 69.60 70.10 70.98 71.33 71.74 72.03 72.83 72.11 71.57 72.38 72.36 72.62 73.01 72.92 72.59 72.06 72.39 72.02 71.81 71.80
63.51 58.75 62.17 62.93 62.17 62.74 61.70 61.13 62.18 62.66 64.75 65.14 65.25 64.93 65.31 66.30 66.42 66.78 67.52 67.69 67.50 67.82 67.87 68.36 69.04 69.45 68.49 68.33 68.64 69.37 70.45 71.09 71.15 71.72 72.02 72.57 72.25 72.14 72.34 72.15 72.31 72.40 72.90 72.78 72.28 71.67 71.81 71.45 71.63
59.31 56.23 57.93 59.71 60.61 60.76 61.26 57.62 58.77 62.75 64.26 63.75 64.20 64.79 65.27 65.66 66.11 66.07 67.19 67.34 67.17 66.78 67.56 67.20 68.48 68.92 67.70 67.92 68.36 69.31 70.32 71.16 71.40 71.82 72.62 72.72 72.86 72.43 72.43 72.25 72.03 72.46 72.63 73.26 72.74 72.44 72.30 71.76 71.88
57.20 55.86 51.49 59.44 60.06 61.67 58.91 51.99 60.31 63.04 62.60 62.07 63.27 64.23 64.77 64.84 64.96 65.76 66.99 67.87 67.35 66.95 65.54 66.42 68.84 68.22 67.24 67.53 68.69 69.78 70.57 71.38 71.90 72.16 72.83 73.02 73.27 73.35 72.50 72.29 72.07 72.63 72.47 72.64 72.66 72.14 71.55 71.68 71.45
53.92 48.55 52.56 56.05 60.69 60.72 56.53 52.93 60.49 62.44 61.61 61.24 62.38 62.98 63.39 63.01 64.25 65.46 66.01 66.85 66.63 66.75 64.89 64.85 66.46 67.49 67.44 68.08 69.66 70.87 71.49 72.26 72.22 74.00 73.04 73.07 73.57 73.66 72.72 72.52 72.47 72.54 72.75 72.42 72.45 71.76 71.66 70.98 71.18
50.57 51.93 54.33 52.61 57.21 59.15 56.68 55.88 59.70 61.81 61.16 60.73 61.77 62.05 61.57 61.67 62.86 65.44 65.40 65.80 65.52 65.57 65.03 65.37 68.01 68.61 68.13 69.03 70.72 71.49 71.81 72.51 73.49 73.80 73.61 73.65 73.64 73.92 72.99 72.94 72.66 72.82 72.51 71.91 71.87 71.55 70.97 71.33 70.70
55.22 53.29 53.97 56.45 58.99 57.64 57.25 57.23 58.62 60.76 61.29 60.27 60.25 60.55 60.88 61.42 63.47 64.84 65.68 64.71 64.82 64.28 64.14 64.78 67.71 68.44 68.82 69.03 69.64 70.07 70.27 71.74 72.81 73.03 73.59 73.92 73.53 74.08 73.28 73.09 73.28 73.12 72.40 71.69 71.55 71.36 70.62 70.23 71.16
53.93 52.55 52.95 57.32 59.28 56.61 57.09 57.71 59.74 59.94 60.40 60.95 60.74 60.72 61.40 61.97 61.76 62.98 63.70 63.52 64.32 64.07 64.46 64.83 67.48 67.93 69.34 69.61 70.64 70.97 70.88 71.98 72.31 72.72 73.47 73.97 73.68 73.72 73.76 73.25 73.35 73.23 71.86 71.47 71.57 71.62 70.23 70.34 70.66
51.71 52.34 52.31 53.32 57.89 58.53 56.05 54.03 56.99 60.39 60.76 61.14 61.63 62.32 62.62 62.64 62.21 61.16 62.16 63.27 63.88 63.81 64.35 65.13 67.03 68.08 69.20 70.15 71.33 71.49 71.31 70.51 70.02 70.49 71.23 73.35 73.02 73.23 74.44 73.63 73.11 72.81 72.06 71.13 71.37 71.54 71.15 68.88 70.08
46.29 55.88 55.48 55.95 51.74 46.73 55.06 45.15 51.37 55.05 57.20 59.78 60.34 60.38 61.32 61.94 62.73 62.03 61.82 62.78 63.60 64.55 65.30 66.13 66.90 67.78 68.72 70.28 70.83 70.85 70.07 69.22 69.62 69.54 71.17 71.46 72.70 73.31 74.55 74.52 73.80 73.54 72.51 71.41 70.20 71.40 71.57 70.56 68.90
51.21 56.68 56.05 55.57 50.82 49.15 50.55 47.27 50.05 54.84 53.90 56.51 59.69 60.37 61.23 61.80 62.29 61.93 62.23 63.40 64.65 65.59 65.40 66.43 66.65 68.04 68.84 70.06 70.98 70.76 69.81 70.61 70.87 69.35 69.70 70.31 70.29 72.93 74.26 74.58 73.77 73.41 72.72 72.57 70.88 70.89 70.83 71.05 70.47
57.17 53.97 52.15 49.97 48.35 43.35 47.53 48.44 48.45 50.27 54.38 56.63 59.48 60.66 61.67 62.21 62.89 62.83 63.45 64.14 64.81 66.17 66.06 66.64 66.18 67.28 68.65 69.80 70.34 70.46 70.01 69.54 69.21 68.74 68.52 67.93 69.31 71.03 71.82 73.05 73.60 73.64 72.33 71.97 71.51 71.40 71.58 71.46 71.17
52.22 47.66 42.02 40.88 41.96 41.73 44.21 47.60 49.79 54.34 56.31 58.30 58.64 59.98 61.41 62.44 62.49 62.23 62.46 62.98 64.09 65.13 65.78 66.24 66.63 66.62 68.30 69.53 69.99 70.44 70.55 70.18 69.61 68.91 68.74 67.53 68.39 70.16 70.93 71.97 72.27 72.94 72.37 71.01 70.01 69.42 69.92 70.90 71.06
48.78 47.18 42.72 37.79 38.80 42.07 44.30 44.91 49.43 55.25 56.11 58.62 60.75 60.30 61.00 61.61 62.45 62.46 63.22 63.64 64.20 65.27 65.76 66.40 66.77 67.23 68.74 69.40 69.73 70.35 70.73 70.18 69.93 69.35 69.25 68.61 68.52 69.68 71.39 71.74 71.58 72.78 73.09 72.66 72.02 70.51 68.92 70.36 71.26
45.31 45.37 47.40 39.16 34.02 39.66 43.40 47.76 52.10 54.36 54.46 56.58 58.01 59.14 59.35 61.26 61.93 62.70 63.75 64.52 64.51 65.28 65.54 66.04 67.53 67.91 69.40 69.61 70.20 70.48 70.45 69.66 68.57 68.59 69.53 69.56 69.88 69.26 69.73 71.16 70.67 70.75 72.44 73.44 72.41 71.65 71.27 72.79 72.93
47.15 48.95 40.61 36.77 34.45 33.74 37.55 41.11 45.53 50.93 52.01 54.83 56.03 58.21 58.68 60.46 61.95 62.99 63.62 64.70 65.39 66.01 66.21 66.53 68.14 68.48 69.67 70.15 70.38 71.26 70.56 70.44 69.11 68.01 67.94 68.77 69.73 70.01 69.46 70.43 70.85 70.27 71.14 71.29 73.21 73.41 73.60 73.36 73.83
41.19 40.04 37.80 38.13 36.68 35.00 33.86 38.67 49.34 52.23 52.80 52.82 56.93 57.95 59.26 60.66 61.56 62.90 63.94 65.18 65.78 66.35 66.40 66.31 67.71 69.00 69.39 70.26 70.23 70.96 70.61 70.78 69.78 68.74 68.94 69.08 68.94 68.95 69.25 69.56 69.84 70.19 70.21 70.93 72.47 73.92 73.58 72.70 73.38
41.80 41.74 39.49 37.21 35.38 33.16 34.78 38.67 48.29 52.37 52.50 54.19 56.26 57.98 59.58 61.46 61.88 63.28 64.43 64.93 65.74 65.86 66.26 66.65 68.01 69.22 69.79 70.44 70.65 71.04 71.58 70.81 69.88 69.64 70.24 69.46 68.42 68.22 67.26 68.29 68.96 69.41 70.13 70.20 71.53 73.12 73.37 72.60 72.10
MSLP
1008.05 1008.36 1008.75 1008.78 1009.58 1009.48 1010.01 1010.11 1009.82 1010.20 1010.56 1010.77 1011.36 1011.75 1012.65 1012.99 1013.44 1014.22 1013.72 1014.13 1014.25 1014.74 1014.97 1015.15 1015.35 1015.47 1015.70 1015.76 1015.87 1015.92 1016.02 1016.04 1016.16 1016.25 1016.37 1016.58 1016.83 1017.07 1017.12 1017.08 1016.92 1016.96 1017.12 1017.22 1017.51 1017.70 1017.87 1017.98 1018.07
1008.27 1008.69 1008.96 1009.26 1009.61 1009.86 1010.28 1009.82 1009.85 1010.12 1010.51 1010.91 1011.58 1012.09 1012.65 1012.95 1013.27 1013.82 1014.06 1014.18 1014.21 1014.75 1015.11 1015.30 1015.44 1015.63 1015.79 1015.96 1016.09 1016.17 1016.31 1016.39 1016.49 1016.51 1016.52 1016.74 1016.98 1017.26 1017.30 1017.29 1017.28 1017.33 1017.47 1017.63 1017.81 1017.94 1018.17 1018.36 1018.55
1008.65 1008.85 1009.38 1009.62 1009.72 1009.80 1010.09 1009.79 1009.92 1010.37 1010.79 1011.10 1011.85 1012.30 1012.72 1013.00 1013.30 1013.50 1013.60 1014.02 1014.43 1014.96 1015.24 1015.45 1015.57 1015.82 1015.99 1016.14 1016.29 1016.40 1016.47 1016.55 1016.67 1016.77 1016.75 1016.95 1017.13 1017.31 1017.50 1017.52 1017.65 1017.71 1017.83 1017.92 1018.09 1018.27 1018.45 1018.69 1018.89
1008.79 1009.29 1009.69 1009.62 1009.48 1009.40 1009.28 1009.46 1009.81 1010.40 1010.80 1011.14 1011.52 1012.41 1012.80 1012.85 1013.05 1013.36 1013.86 1014.07 1014.68 1015.25 1015.47 1015.58 1015.78 1015.93 1016.22 1016.41 1016.53 1016.57 1016.73 1016.78 1016.88 1016.88 1016.96 1017.02 1017.34 1017.64 1017.79 1017.77 1017.93 1018.01 1018.18 1018.36 1018.46 1018.56 1018.77 1019.00 1019.21
1009.06 1009.39 1009.44 1009.46 1009.32 1009.15 1009.00 1009.23 1009.67 1010.08 1010.58 1010.96 1011.28 1012.27 1012.79 1013.22 1013.21 1013.60 1014.17 1014.51 1015.06 1015.50 1015.72 1015.78 1016.03 1016.12 1016.37 1016.62 1016.74 1016.80 1016.86 1017.03 1017.12 1017.10 1017.08 1017.15 1017.46 1017.79 1018.04 1018.11 1018.11 1018.24 1018.45 1018.68 1018.85 1018.99 1019.15 1019.26 1019.38
1009.19 1009.45 1009.52 1009.44 1009.09 1009.03 1009.02 1009.05 1009.43 1009.89 1010.50 1010.88 1011.22 1012.02 1013.18 1013.44 1013.59 1014.13 1014.54 1014.85 1015.20 1015.69 1015.85 1016.01 1016.16 1016.25 1016.50 1016.74 1016.90 1017.00 1017.07 1017.11 1017.25 1017.24 1017.26 1017.43 1017.64 1017.91 1018.15 1018.34 1018.41 1018.48 1018.70 1018.99 1019.13 1019.29 1019.40 1019.48 1019.53
1008.80 1009.04 1009.27 1009.23 1009.08 1008.90 1008.87 1009.01 1009.38 1009.95 1010.33 1010.75 1011.04 1012.30 1013.48 1013.67 1013.82 1014.34 1014.84 1015.24 1015.53 1015.80 1016.09 1016.23 1016.31 1016.42 1016.57 1016.77 1016.92 1017.15 1017.25 1017.35 1017.35 1017.49 1017.46 1017.65 1017.83 1018.12 1018.32 1018.45 1018.57 1018.76 1019.03 1019.28 1019.44 1019.63 1019.75 1019.72 1019.79
1008.40 1008.64 1008.82 1008.72 1008.75 1008.63 1008.57 1008.97 1009.25 1009.73 1010.44 1010.66 1011.04 1012.19 1013.21 1013.58 1014.05 1014.58 1015.16 1015.65 1015.96 1016.10 1016.30 1016.49 1016.53 1016.72 1016.82 1016.97 1017.07 1017.23 1017.37 1017.47 1017.50 1017.64 1017.67 1017.76 1017.96 1018.26 1018.62 1018.67 1018.65 1018.79 1019.17 1019.49 1019.71 1019.90 1019.98 1020.00 1019.98
1008.15 1008.42 1008.49 1008.18 1008.21 1008.04 1008.26 1008.82 1009.37 1009.68 1010.31 1010.79 1011.17 1011.71 1012.21 1013.37 1014.30 1014.90 1015.50 1016.02 1016.28 1016.40 1016.60 1016.68 1016.79 1017.05 1017.11 1017.23 1017.26 1017.31 1017.41 1017.48 1017.58 1017.71 1017.87 1018.09 1018.23 1018.47 1018.69 1018.72 1018.78 1018.99 1019.23 1019.62 1019.89 1020.08 1020.15 1020.17 1020.25
1008.05 1008.02 1007.45 1006.89 1007.01 1007.40 1007.87 1008.36 1009.02 1009.84 1010.54 1010.90 1011.59 1012.04 1012.55 1013.34 1014.18 1014.82 1015.33 1015.85 1016.15 1016.28 1016.55 1016.77 1016.84 1017.11 1017.31 1017.23 1017.39 1017.48 1017.54 1017.56 1017.77 1018.00 1018.12 1018.39 1018.46 1018.59 1018.68 1018.86 1018.92 1019.12 1019.41 1019.72 1020.06 1020.27 1020.36 1020.56 1020.70
1007.49 1007.06 1006.28 1006.06 1006.06 1006.66 1007.52 1008.17 1008.60 1009.42 1010.38 1010.32 1011.19 1012.21 1012.83 1013.48 1014.08 1014.61 1014.99 1015.31 1015.47 1015.91 1016.36 1016.59 1016.71 1017.00 1017.28 1017.32 1017.44 1017.62 1017.76 1017.82 1017.92 1018.07 1018.31 1018.46 1018.63 1018.68 1018.87 1019.10 1019.15 1019.32 1019.47 1019.91 1020.14 1020.51 1020.68 1020.81 1020.92
1006.79 1005.87 1005.74 1005.47 1005.78 1006.61 1007.33 1007.89 1008.50 1008.96 1009.11 1009.51 1010.74 1011.55 1012.61 1013.38 1013.81 1014.11 1014.54 1014.99 1015.52 1015.77 1016.04 1016.41 1016.59 1016.84 1017.14 1017.32 1017.39 1017.45 1017.74 1017.88 1018.01 1018.06 1018.31 1018.58 1018.76 1018.90 1019.03 1019.21 1019.32 1019.48 1019.71 1020.00 1020.29 1020.60 1020.73 1020.86 1020.94
1006.00 1005.19 1004.98 1005.00 1005.45 1006.15 1006.88 1007.50 1008.18 1008.75 1008.92 1009.50 1010.77 1011.82 1012.57 1013.31 1013.62 1013.96 1014.11 1014.49 1015.02 1015.41 1015.76 1016.07 1016.31 1016.64 1016.88 1017.21 1017.34 1017.42 1017.50 1017.69 1017.84 1018.06 1018.14 1018.31 1018.59 1018.84 1019.07 1019.22 1019.40 1019.54 1019.66 1019.93 1020.27 1020.55 1020.71 1020.91 1020.93
1005.01 1004.98 1005.15 1005.31 1005.59 1005.97 1006.69 1007.49 1007.83 1008.64 1009.11 1009.97 1010.68 1011.70 1012.36 1012.95 1013.20 1013.67 1013.94 1013.97 1014.33 1014.76 1015.14 1015.56 1015.90 1016.06 1016.49 1016.79 1017.08 1017.16 1017.29 1017.45 1017.62 1017.78 1017.89 1018.05 1018.33 1018.64 1018.93 1019.17 1019.30 1019.45 1019.62 1019.81 1020.17 1020.49 1020.69 1020.84 1020.87
1004.68 1005.59 1005.69 1005.96 1006.05 1006.38 1006.67 1007.69 1007.75 1008.35 1009.03 1009.88 1010.79 1011.41 1012.10 1012.52 1012.99 1013.07 1013.26 1013.61 1013.75 1014.08 1014.45 1014.95 1015.36 1015.63 1016.22 1016.36 1016.56 1016.83 1016.95 1017.13 1017.36 1017.46 1017.57 1017.88 1018.09 1018.41 1018.67 1018.92 1019.21 1019.36 1019.54 1019.82 1020.07 1020.31 1020.54 1020.66 1020.71
1005.35 1005.93 1006.45 1006.54 1006.41 1006.40 1006.66 1007.41 1007.84 1008.32 1008.98 1009.96 1010.69 1011.26 1011.74 1012.00 1012.17 1012.54 1012.90 1013.13 1013.45 1013.94 1014.38 1014.65 1015.04 1015.40 1015.77 1016.05 1016.20 1016.44 1016.61 1016.91 1017.11 1017.21 1017.32 1017.61 1017.90 1018.15 1018.50 1018.72 1018.98 1019.24 1019.48 1019.66 1019.90 1020.13 1020.43 1020.63 1020.77
1006.59 1006.71 1006.97 1006.84 1006.73 1006.78 1007.02 1007.50 1008.00 1008.53 1008.92 1009.67 1010.29 1011.06 1011.42 1011.98 1011.92 1011.99 1012.30 1012.68 1013.14 1013.49 1014.13 1014.52 1014.86 1015.07 1015.36 1015.67 1015.97 1016.20 1016.34 1016.61 1016.89 1016.98 1017.13 1017.35 1017.73 1018.03 1018.26 1018.56 1018.76 1018.99 1019.30 1019.49 1019.66 1020.06 1020.35 1020.46 1020.62
1007.08 1007.06 1007.10 1006.90 1006.91 1007.02 1007.38 1007.48 1007.90 1008.42 1008.91 1009.31 1009.86 1010.43 1011.15 1011.47 1011.32 1011.24 1011.66 1012.29 1012.78 1013.23 1013.71 1014.02 1014.54 1014.88 1015.29 1015.62 1015.95 1016.24 1016.54 1016.65 1016.67 1016.61 1016.83 1017.15 1017.38 1017.82 1018.17 1018.44 1018.66 1018.82 1019.08 1019.37 1019.56 1019.87 1020.20 1020.37 1020.42
1006.75 1006.99 1007.14 1006.78 1006.87 1007.36 1007.56 1007.75 1007.89 1008.21 1008.87 1009.37 1009.70 1009.81 1010.14 1010.32 1010.65 1011.34 1011.35 1011.87 1012.47 1012.93 1013.51 1013.79 1014.33 1014.66 1015.19 1015.60 1016.05 1016.49 1016.55 1016.57 1016.60 1016.62 1016.75 1016.88 1017.52 1017.54 1017.98 1018.10 1018.34 1018.54 1018.88 1019.11 1019.51 1019.77 1020.05 1020.32 1020.52
1006.72 1006.98 1007.03 1007.21 1007.36 1007.93 1007.94 1007.80 1007.38 1007.75 1007.58 1007.98 1008.65 1009.22 1009.21 1009.75 1010.22 1010.54 1011.19 1011.61 1011.92 1012.25 1012.79 1013.28 1013.74 1014.30 1014.78 1015.04 1015.40 1015.86 1016.13 1016.44 1016.55 1016.46 1016.51 1016.84 1017.27 1017.57 1017.68 1017.78 1018.03 1018.21 1018.70 1018.99 1019.31 1019.66 1019.91 1020.18 1020.51
1006.72 1006.80 1006.81 1007.25 1007.72 1008.16 1008.43 1008.00 1007.56 1007.48 1007.88 1008.18 1008.18 1008.37 1008.69 1008.73 1009.30 1009.70 1010.30 1010.88 1011.40 1011.83 1012.04 1012.56 1013.01 1013.68 1014.28 1014.74 1015.27 1015.85 1016.13 1016.51 1016.67 1016.67 1016.96 1016.67 1016.53 1016.68 1017.26 1017.35 1017.55 1017.78 1018.36 1018.68 1018.98 1019.37 1019.62 1020.00 1020.43
1006.45 1006.07 1006.59 1007.57 1008.43 1008.75 1008.79 1008.86 1007.73 1007.20 1007.53 1007.47 1007.31 1007.28 1007.32 1007.84 1008.37 1008.93 1009.49 1010.05 1010.57 1010.64 1011.47 1011.94 1012.48 1013.17 1013.82 1014.39 1014.98 1015.33 1015.60 1016.10 1016.23 1016.30 1016.39 1016.33 1016.32 1016.65 1016.89 1016.99 1017.45 1017.69 1017.85 1018.31 1018.56 1019.02 1019.39 1019.73 1020.24
1005.90 1006.24 1007.28 1008.31 1009.11 1009.36 1009.16 1009.34 1007.13 1007.03 1007.17 1006.19 1005.95 1006.13 1006.11 1006.50 1006.98 1007.69 1008.23 1008.72 1009.20 1010.15 1010.63 1011.18 1011.96 1012.76 1013.35 1013.92 1014.38 1014.85 1015.22 1015.58 1015.86 1016.12 1016.44 1016.56 1016.57 1016.63 1016.67 1016.86 1017.28 1017.59 1017.47 1017.96 1018.32 1018.66 1019.01 1019.38 1019.69
1005.85 1007.00 1008.33 1009.47 1010.10 1010.05 1009.05 1009.00 1006.17 1005.83 1004.40 1004.72 1004.58 1004.67 1004.62 1005.18 1005.78 1006.51 1007.00 1007.87 1008.65 1009.51 1010.19 1010.81 1011.50 1012.18 1012.80 1013.31 1013.87 1014.40 1014.71 1015.21 1015.81 1016.13 1016.41 1016.84 1016.72 1016.68 1016.58 1016.60 1016.95 1017.21 1017.64 1017.95 1018.13 1018.30 1018.65 1018.96 1019.28
1006.23 1008.08 1009.89 1010.81 1011.21 1010.74 1009.39 1008.98 1005.86 1003.61 1003.33 1002.94 1003.42 1003.32 1003.89 1004.41 1005.02 1005.68 1006.45 1007.10 1007.93 1008.79 1009.43 1010.20 1010.92 1011.69 1012.16 1012.75 1013.40 1013.84 1014.18 1014.65 1015.18 1015.67 1016.10 1016.49 1016.56 1016.59 1016.48 1016.69 1016.88 1017.16 1017.37 1017.62 1017.90 1018.10 1018.42 1018.78 1019.00
1006.27 1007.32 1009.15 1010.39 1011.51 1010.67 1009.78 1007.97 1004.29 1002.28 1002.04 1002.07 1002.08 1002.32 1002.84 1003.60 1004.19 1004.58 1005.19 1006.00 1006.70 1007.62 1008.58 1009.48 1010.23 1010.96 1011.61 1012.08 1012.72 1013.33 1013.68 1014.14 1014.66 1015.18 1015.61 1015.85 1016.22 1016.37 1016.45 1016.68 1016.76 1017.02 1017.14 1017.31 1017.43 1017.77 1018.16 1018.46 1018.61
1006.01 1007.06 1007.58 1009.70 1011.09 1010.90 1009.20 1006.81 1003.76 1001.96 1001.37 1001.54 1001.77 1002.22 1002.29 1002.71 1003.28 1003.70 1004.39 1005.09 1005.93 1006.79 1007.65 1008.53 1009.40 1010.19 1010.97 1011.42 1012.15 1012.82 1013.34 1013.78 1014.33 1014.80 1015.06 1015.60 1016.02 1016.29 1016.30 1016.53 1017.02 1016.95 1017.07 1017.26 1017.40 1017.75 1018.03 1018.15 1018.25
1004.41 1005.59 1007.49 1009.28 1010.63 1010.68 1008.76 1007.03 1004.08 1002.27 1001.18 1001.48 1001.65 1001.75 1001.84 1001.97 1002.60 1003.02 1003.66 1004.34 1004.97 1005.63 1006.39 1007.59 1008.39 1009.22 1010.02 1010.80 1011.42 1012.11 1012.74 1013.30 1013.82 1014.49 1014.89 1015.21 1015.79 1016.16 1016.38 1016.82 1017.03 1017.14 1017.19 1017.31 1017.44 1017.68 1017.88 1017.91 1017.93
1004.82 1005.57 1007.05 1008.40 1009.15 1009.34 1008.50 1006.70 1002.63 1001.57 1000.82 1000.72 1000.95 1000.90 1001.44 1001.35 1001.76 1002.23 1002.69 1003.41 1004.12 1004.91 1005.97 1006.89 1007.86 1008.73 1009.50 1010.26 1010.89 1011.55 1012.24 1012.96 1013.63 1014.07 1014.41 1014.90 1015.54 1015.94 1016.25 1016.66 1016.78 1016.99 1017.03 1017.15 1017.32 1017.53 1017.68 1017.78 1017.62
1003.46 1004.35 1005.50 1007.58 1008.74 1008.59 1007.26 1004.06 1000.90 1000.67 1000.34 1000.24 1000.19 1000.35 1000.64 1000.88 1001.23 1001.85 1001.97 1002.96 1003.94 1004.63 1005.46 1006.26 1007.19 1008.14 1008.69 1009.46 1010.44 1010.95 1011.79 1012.60 1013.22 1013.68 1013.99 1014.57 1015.03 1015.59 1016.01 1016.16 1016.42 1016.58 1016.74 1016.92 1017.12 1017.26 1017.34 1017.40 1017.37
Wind_Speed
8 5 2 1 4 5 3 2 3 6 4 2 10 3 7 3 1 3 3 6 11 10 7 7 10 11 10 12 12 13 11 12 13 13 14 13 13 12 11 12 14 15 16 16 17 15 17 15 16
5 4 3 2 3 3 1 2 8 4 7 12 9 9 3 2 3 6 7 7 12 9 6 6 11 10 11 11 12 12 12 10 11 13 13 12 12 12 12 12 13 15 15 15 16 16 15 15 15
6 3 2 2 2 3 3 3 7 13 8 4 4 4 2 4 5 11 4 13 11 7 6 6 13 11 11 12 11 10 11 10 9 10 12 11 11 12 13 12 12 14 15 14 14 15 15 14 14
2 2 1 3 3 3 5 7 10 9 10 5 7 6 3 1 9 5 12 14 11 6 6 8 12 12 10 11 11 10 10 10 9 9 10 12 10 12 10 13 13 13 15 15 14 14 14 14 12
1 1 2 2 3 3 4 8 11 5 4 6 4 5 4 3 6 14 13 11 9 6 5 6 11 11 9 10 10 10 10 10 8 9 10 11 12 13 11 10 13 13 14 13 14 14 12 11 7
1 1 4 2 3 3 4 8 7 5 7 7 7 5 3 9 12 12 9 9 7 8 5 6 11 11 10 9 9 8 10 10 8 9 9 12 12 11 12 10 11 13 13 13 12 12 10 9 8
1 2 2 2 3 2 4 4 5 5 9 4 8 4 2 4 12 11 8 7 6 6 4 3 5 8 11 9 9 8 8 8 10 9 10 12 12 12 11 11 11 12 13 12 12 11 9 8 8
2 2 3 2 4 2 6 3 7 6 3 9 5 5 4 6 12 11 9 7 6 5 4 3 4 2 4 4 8 8 8 8 8 8 9 11 12 11 10 9 11 12 11 11 11 10 9 7 8
1 4 2 3 6 3 9 5 2 7 11 3 4 5 10 17 14 12 10 6 4 4 3 2 3 2 3 3 3 6 7 7 8 8 7 7 3 5 7 7 10 11 11 10 9 8 7 7 8
2 3 6 6 7 6 10 11 8 5 9 3 6 11 19 19 15 13 10 9 8 7 5 5 5 4 4 3 2 2 2 2 3 4 4 3 3 4 5 6 7 9 9 10 8 6 4 6 3
4 5 5 6 8 9 11 6 6 11 5 6 15 17 18 17 13 13 12 12 14 8 5 7 5 5 5 3 3 1 1 1 2 4 4 4 2 2 2 1 1 2 6 2 3 3 2 3 2
3 8 5 5 8 8 11 11 5 9 4 9 19 21 17 16 14 13 13 11 9 9 8 6 6 5 5 3 3 3 2 2 2 3 4 3 2 3 3 2 2 2 2 3 2 1 2 2 1
3 2 5 8 13 9 10 11 6 10 5 15 18 18 17 14 13 11 12 10 10 9 8 7 7 6 5 5 3 3 3 3 4 3 4 3 3 3 2 3 2 2 2 2 2 2 2 0 2
7 3 3 5 7 9 10 4 6 5 11 14 19 18 16 14 14 11 11 11 11 10 10 9 10 8 6 6 6 4 3 4 3 3 4 5 3 3 3 3 3 3 2 2 2 2 2 1 1
6 5 4 5 1 2 7 4 9 8 14 17 16 17 16 14 12 14 13 11 12 8 10 11 10 8 8 7 6 5 4 4 4 4 5 5 5 5 5 4 3 3 3 3 2 2 1 2 2
6 5 2 3 4 1 7 6 3 15 17 16 15 15 14 15 16 14 12 13 11 9 9 8 9 9 9 7 5 4 4 4 4 5 4 6 5 5 4 4 4 3 3 3 3 2 3 2 2
7 3 0 3 2 2 3 4 5 10 13 16 15 13 13 10 12 14 13 12 10 10 8 8 7 8 10 7 4 4 4 3 4 4 4 5 5 5 4 4 3 4 3 3 3 2 2 2 2
5 3 2 3 2 3 1 4 6 12 13 16 15 13 11 13 18 16 13 12 9 8 8 8 7 7 6 4 4 2 2 3 3 3 4 4 4 5 4 3 4 4 3 3 3 4 2 2 2
5 3 6 4 3 3 6 5 5 14 12 12 12 13 14 16 14 15 13 10 10 7 8 9 8 7 5 3 3 2 3 2 2 2 4 5 5 6 5 4 4 4 4 4 4 2 4 2 1
4 4 4 2 1 1 1 7 7 15 19 18 17 14 15 12 9 12 11 10 14 13 12 10 11 9 8 4 3 3 3 2 2 2 3 3 4 2 5 6 6 5 3 4 4 3 2 2 3
3 8 7 4 2 2 3 5 4 6 4 9 13 14 13 16 14 11 11 15 12 12 14 13 13 10 8 6 5 3 3 3 1 2 1 4 8 8 8 6 5 5 5 5 4 4 5 3 2
6 13 4 6 3 3 5 6 6 6 9 10 14 18 18 18 14 12 13 14 15 16 12 12 11 10 8 8 7 6 5 5 4 3 2 3 4 5 7 6 5 5 5 5 4 4 3 3 3
5 5 5 4 3 1 2 2 5 8 8 15 18 18 18 18 19 16 17 18 18 14 14 13 11 9 9 10 9 7 4 3 2 3 6 3 2 3 3 4 4 5 4 4 6 5 5 3 3
8 7 9 4 3 3 3 5 10 7 8 9 14 20 21 18 18 16 17 15 14 12 11 11 11 11 9 10 9 10 10 6 4 3 3 3 3 3 4 6 5 4 4 5 5 4 5 5 3
8 7 4 4 4 7 3 2 13 10 9 6 12 15 16 16 14 15 16 16 13 15 14 12 12 11 11 11 11 10 10 8 8 6 5 6 3 3 5 4 4 3 3 4 4 4 4 4 4
6 9 8 8 6 4 3 7 11 6 4 6 10 8 10 15 15 18 19 17 18 18 16 15 13 12 12 13 12 9 8 6 5 6 5 6 4 4 2 4 3 2 4 4 4 2 3 4 5
6 4 6 8 3 1 5 9 12 9 5 4 8 8 11 14 16 18 17 18 18 17 18 17 14 14 13 14 10 9 8 7 7 7 5 4 3 2 4 3 4 3 3 4 4 3 4 4 4
7 7 4 3 4 5 6 7 8 9 13 6 8 10 9 11 14 14 15 17 17 17 18 16 15 16 14 13 11 9 10 8 7 6 6 6 5 5 4 4 4 3 4 3 3 3 3 5 3
1 0 5 6 5 8 4 9 10 13 12 7 10 9 10 11 15 16 16 16 17 15 15 15 14 14 12 12 10 10 9 8 7 7 6 5 6 6 6 7 6 6 5 4 3 4 4 5 5
6 9 8 7 6 3 3 9 8 13 7 7 8 9 9 10 13 14 17 16 15 16 15 16 14 14 14 13 11 11 9 8 8 8 6 6 6 5 6 5 6 7 5 5 4 5 5 5 3
Wind_Direction
142 94 76 43 39 60 38 44 71 114 116 14 139 166 134 13 164 206 144 142 135 144 149 149 139 130 122 109 105 107 116 119 122 123 122 123 128 125 119 113 111 108 100 103 105 103 105 106 104
116 108 39 8 70 66 20 320 119 84 102 103 83 103 151 89 78 107 118 162 142 145 147 151 141 142 127 116 110 106 107 121 129 126 122 125 130 129 128 120 115 114 108 105 105 114 110 113 105
145 7 51 27 108 116 158 160 138 129 147 89 109 56 127 154 101 148 145 143 136 138 145 168 148 144 138 121 111 107 101 95 123 125 118 128 136 139 128 122 119 111 113 113 112 116 115 114 111
140 34 324 74 72 60 137 143 129 137 108 123 163 82 93 219 142 157 146 141 133 131 147 168 154 144 145 125 122 107 94 92 96 122 114 128 141 134 131 127 120 122 117 121 122 117 116 117 117
55 58 52 76 54 52 70 120 144 132 127 138 134 127 67 92 101 122 142 137 135 137 151 156 162 148 144 135 129 124 114 105 90 106 113 128 140 136 130 131 127 119 121 121 125 122 119 113 111
57 40 50 29 69 60 73 142 140 116 124 127 108 100 83 122 117 132 137 136 137 147 151 158 168 156 151 145 140 130 121 118 108 98 113 119 133 134 135 135 129 129 123 124 126 119 104 88 77
154 106 98 92 71 73 145 171 119 110 120 105 130 81 82 123 133 130 123 107 126 142 133 161 158 174 161 156 153 142 131 124 120 111 112 119 124 134 139 140 136 120 117 130 127 113 99 79 74
172 100 92 135 160 242 145 125 133 112 81 121 149 147 176 144 133 117 108 105 118 129 140 165 158 166 146 169 161 156 143 135 122 121 118 126 134 139 145 145 133 123 127 134 131 120 106 87 69
228 62 150 182 148 171 145 128 145 99 134 183 158 141 136 134 122 114 120 115 113 144 143 161 169 161 151 159 200 172 167 156 145 132 128 95 100 108 135 142 139 138 132 130 130 121 106 81 58
155 116 216 195 168 158 161 142 140 121 158 134 78 103 126 135 141 142 155 162 172 177 176 183 187 182 173 186 199 182 209 158 120 105 112 116 127 130 139 160 161 152 148 146 145 137 104 77 59
189 202 201 202 161 144 156 140 160 131 200 200 156 148 142 146 155 158 169 176 184 182 184 187 190 184 189 203 194 202 197 227 151 143 135 147 146 136 129 153 116 124 165 116 125 91 93 99 95
215 238 237 149 140 134 162 142 164 175 213 159 156 154 149 163 164 173 177 184 175 178 188 177 188 193 197 194 203 195 187 206 191 187 166 156 164 180 175 181 197 161 131 144 128 119 127 114 140
237 273 152 147 161 143 145 172 173 197 107 133 146 152 158 166 174 186 184 184 176 185 184 191 184 200 194 200 204 210 209 202 195 189 193 177 175 183 180 190 185 195 162 160 165 161 164 87 319
192 122 101 150 156 152 160 154 143 135 132 133 155 162 163 174 181 177 187 191 184 185 191 184 193 196 185 195 196 206 209 203 205 208 202 194 183 178 184 187 192 192 193 182 179 195 201 221 246
102 77 53 25 91 77 123 126 212 146 147 147 166 170 169 175 183 195 195 196 190 191 184 186 192 189 197 206 200 188 206 195 203 215 207 197 181 186 182 178 190 195 188 190 200 229 222 243 237
79 67 118 330 316 67 126 250 288 159 153 161 167 177 182 187 190 198 200 203 194 191 182 186 195 190 196 198 203 202 201 199 195 214 191 195 189 186 181 182 189 184 184 187 187 207 240 240 249
17 174 234 307 35 201 158 238 161 172 165 166 171 184 187 192 209 204 200 204 199 194 178 186 194 195 198 193 187 205 213 193 203 188 180 191 187 196 180 190 193 174 195 202 190 182 195 234 234
192 174 267 202 267 9 269 231 166 178 173 179 179 180 188 197 209 217 198 194 191 191 183 185 184 200 178 156 140 144 203 212 211 200 173 188 193 189 181 193 196 188 180 213 206 200 179 206 213
138 142 195 232 200 153 216 270 211 175 180 185 194 191 191 204 200 217 211 185 183 179 174 183 179 186 156 150 144 160 202 179 216 200 205 188 192 184 192 189 201 196 199 196 200 161 188 190 148
129 193 243 307 117 136 308 245 198 185 195 189 191 201 202 209 190 201 209 188 186 186 189 183 194 183 187 176 157 151 160 152 127 191 218 165 120 243 203 193 201 189 177 192 174 180 137 154 174
189 201 209 213 133 179 316 274 226 197 171 193 208 207 209 202 205 196 190 198 185 191 191 190 193 185 186 179 121 94 82 78 90 214 144 194 164 201 224 203 193 190 175 193 179 182 173 161 161
195 226 206 133 94 225 103 286 250 201 206 209 203 204 205 206 206 195 191 194 197 204 194 192 184 179 181 166 159 161 177 172 194 188 186 193 210 205 219 207 191 192 185 184 189 185 162 135 165
232 125 117 95 85 21 227 47 262 120 224 232 210 206 204 202 201 194 189 193 201 194 192 192 180 175 181 181 180 180 177 152 139 159 160 198 263 269 226 202 189 205 188 200 184 172 175 172 156
137 72 43 62 86 317 230 127 285 181 204 192 208 209 199 194 200 195 191 187 192 194 186 179 177 181 179 182 187 185 188 164 159 184 169 194 208 202 206 209 191 202 194 192 201 181 179 183 168
81 74 17 356 3 228 277 90 241 275 230 231 195 209 200 203 189 181 179 181 177 185 186 179 179 187 184 186 193 193 196 177 190 186 174 184 199 208 221 180 175 193 196 189 180 175 197 181 196
182 148 153 188 204 252 73 233 253 244 258 202 194 195 169 186 191 185 183 181 180 184 185 187 184 193 188 192 196 194 197 187 190 186 192 195 192 185 184 179 172 181 184 185 181 180 195 197 218
184 162 178 102 22 78 223 283 302 282 319 175 195 190 190 185 185 193 183 180 181 183 185 191 184 193 189 197 186 184 184 178 187 194 191 157 172 158 150 162 164 166 177 207 174 186 204 215 220
155 164 85 13 147 233 285 288 248 289 283 192 209 206 208 188 189 191 184 184 184 186 186 188 183 187 187 189 184 186 185 186 185 169 193 192 149 148 151 137 170 187 181 193 192 188 224 224 238
39 151 57 120 133 168 211 258 224 244 249 247 226 208 203 189 186 187 186 186 185 182 183 186 182 182 178 184 184 176 182 178 171 192 189 179 148 151 173 178 190 200 193 182 194 204 218 224 231
170 193 149 131 239 238 196 262 229 235 248 242 227 214 200 189 177 188 187 173 173 180 186 181 179 183 185 178 175 182 171 165 179 199 194 150 174 157 181 185 192 212 191 179 209 194 196 221 260